Date,TemperatureHighF,TemperatureAvgF,TemperatureLowF,DewpointHighF,DewpointAvgF,DewpointLowF,HumidityHigh,HumidityAvg,HumidityLow,PressureMaxIn,PressureMinIn,WindSpeedMaxMPH,WindSpeedAvgMPH,GustSpeedMaxMPH,PrecipitationSumIn
2012-1-26,53.4,45.8,42.6,39.2,38.1,3.5,84,75,56,29.98,29.93,2,0,2,0.00
2012-1-27,66.2,52.6,40.3,47.3,40.2,32.3,87,65,47,30.23,29.37,8,2,13,0.00
2012-1-28,52.9,47.1,37.4,32.8,26.6,20.6,67,46,29,30.55,30.23,8,2,14,0.00
2012-1-29,62.4,49.9,34.3,34.7,28.8,23.7,85,49,24,30.52,30.29,10,2,10,0.00
2012-1-30,71.6,58.7,46.6,55.8,44.5,31.6,78,60,36,30.29,30.09,19,5,19,0.00
2012-1-31,76.5,66.4,60.4,60.7,58.7,55.7,91,77,56,30.13,29.98,17,5,17,0.00
2012-2-1,75.0,62.9,56.8,61.8,57.6,53.4,99,84,54,30.16,30.05,11,2,11,0.00
2012-2-2,73.6,62.5,51.6,62.9,56.3,48.5,92,81,63,30.78,29.93,23,6,23,0.71
2012-2-3,74.3,67.2,54.3,66.1,62.7,49.1,96,86,73,30.06,29.86,30,13,30,0.05
2012-2-4,54.3,49.7,44.2,49.4,40.2,33.4,84,70,57,30.32,30.06,30,16,30,0.00
2012-2-5,45.7,43.0,40.6,35.1,33.6,0.9,76,69,62,30.42,30.31,27,10,27,0.00
2012-2-6,68.4,46.7,35.6,60.5,35.7,30.8,87,67,51,30.38,29.71,11,4,11,0.35
2012-2-7,60.6,53.0,47.7,44.8,41.6,39.0,77,66,53,30.38,30.19,14,5,14,0.00
2012-2-8,47.7,43.1,41.2,40.5,36.4,33.7,87,77,69,30.52,30.36,17,7,20,0.00
2012-2-9,55.6,47.0,37.2,44.8,37.8,31.3,84,71,56,30.38,30.11,17,6,17,0.02
2012-2-10,55.9,47.9,34.9,47.3,40.3,25.1,94,76,56,30.40,30.06,27,12,27,0.09
2012-2-11,36.9,32.0,28.8,25.2,13.7,4.0,69,48,27,30.63,30.40,25,12,25,0.00
2012-2-12,42.3,35.7,28.9,31.8,15.6,5.1,85,46,24,30.64,30.23,23,9,23,0.01
2012-2-13,45.9,40.5,35.6,44.7,37.6,30.3,97,89,78,30.24,29.84,19,8,19,0.18
2012-2-14,63.7,52.2,45.3,53.3,48.4,44.5,99,88,68,29.99,29.85,24,9,24,0.00
2012-2-15,77.2,61.8,53.8,61.4,44.2,23.1,96,62,17,30.08,29.86,24,10,24,0.02
2012-2-16,56.8,51.4,43.5,45.2,43.1,36.7,93,74,49,30.31,30.08,16,7,16,0.00
2012-2-17,52.5,50.9,46.9,48.5,46.8,43.0,88,86,79,30.18,30.12,11,3,11,0.00
2012-2-18,52.3,50.0,46.2,48.3,46.9,43.5,97,89,83,30.17,29.89,24,6,24,0.91
2012-2-19,57.7,48.2,39.0,45.8,42.7,38.6,99,82,64,30.19,30.03,16,6,16,0.00
2012-2-20,63.9,55.1,47.8,54.6,44.1,19.5,89,70,20,30.12,29.89,30,14,30,0.00
2012-2-21,70.9,58.3,43.0,56.8,37.4,22.0,75,49,19,30.18,29.89,23,8,23,0.00
2012-2-22,72.9,65.6,50.0,56.8,50.6,31.8,95,62,23,30.19,29.55,21,9,21,0.00
2012-2-23,81.7,68.4,54.0,45.1,35.4,27.2,47,31,15,29.89,29.45,31,14,31,0.00
2012-2-24,59.7,52.9,45.5,29.9,21.4,15.7,44,30,21,30.31,29.90,30,12,30,0.00
2012-2-25,65.3,57.1,50.5,24.8,18.5,15.7,36,22,18,30.35,30.17,21,10,21,0.00
2012-2-26,65.7,54.5,47.5,49.2,37.8,20.2,69,54,36,30.19,29.92,28,11,28,0.00
2012-2-27,68.2,60.5,56.8,52.3,51.1,49.0,78,71,55,30.32,30.18,15,7,15,0.00
2012-2-28,73.8,67.4,61.3,65.3,60.4,51.1,89,78,66,30.19,29.87,38,14,38,0.00
2012-2-29,76.8,68.9,60.8,66.2,36.1,21.5,91,36,15,30.07,29.93,19,6,19,0.04
2012-3-1,82.0,69.2,57.9,67.1,50.0,31.2,87,53,31,29.95,29.62,27,11,27,0.00
2012-3-2,70.9,62.8,52.7,67.7,46.4,31.5,90,58,33,29.97,29.61,30,14,30,0.00
2012-3-3,60.8,52.6,44.1,36.9,30.1,21.3,74,45,22,30.17,29.97,21,7,21,0.00
2012-3-4,75.7,60.1,42.1,33.2,27.4,18.6,64,33,13,30.23,30.09,23,6,23,0.00
2012-3-5,78.8,66.2,52.2,43.4,35.7,27.9,56,35,16,30.34,30.20,29,9,29,0.00
2012-3-6,72.5,64.6,55.4,54.7,51.1,39.7,85,63,43,30.22,29.98,40,20,40,0.00
2012-3-7,70.7,67.6,64.9,65.1,60.5,54.3,92,78,68,30.02,29.91,36,17,36,0.00
2012-3-8,72.7,58.1,43.3,69.1,54.4,35.3,97,87,67,30.38,29.92,36,15,36,0.14
2012-3-9,54.3,47.8,41.4,35.3,30.8,26.0,73,53,34,30.53,27.34,28,13,28,0.00
2012-3-10,53.4,50.4,48.2,50.1,41.3,30.4,99,73,42,30.37,30.10,20,8,20,0.80
2012-3-11,68.9,56.9,50.4,54.8,52.4,50.1,99,86,59,30.10,29.94,17,7,17,0.14
2012-3-12,80.4,66.3,54.3,63.7,56.0,50.7,99,73,37,30.07,29.96,22,11,22,0.00
2012-3-13,79.0,70.9,64.0,67.1,64.8,62.8,97,82,60,30.16,30.04,22,10,22,0.00
2012-3-14,78.3,72.0,67.8,66.9,65.5,63.2,90,80,62,30.15,30.06,23,11,23,0.00
2012-3-15,81.5,74.3,68.5,67.0,65.2,63.3,85,74,56,30.17,30.06,26,12,26,0.00
2012-3-16,81.0,73.6,68.4,66.3,65.2,63.0,89,75,55,30.14,30.00,24,13,24,0.00
2012-3-17,80.2,73.8,67.6,66.3,62.9,60.2,89,70,52,30.07,29.91,36,15,36,0.01
2012-3-18,76.5,72.2,68.5,66.0,64.3,61.1,86,76,67,30.02,29.88,33,15,33,0.00
2012-3-19,80.8,70.7,57.7,66.5,62.6,54.4,98,77,52,29.90,29.62,46,19,46,1.06
2012-3-20,65.8,58.7,52.2,58.6,53.4,50.8,99,83,64,29.87,29.69,21,6,21,1.74
2012-3-21,66.4,60.0,53.8,53.4,45.3,37.1,89,61,37,29.87,29.76,25,9,25,0.01
2012-3-22,72.5,55.8,49.3,52.7,48.6,45.7,95,78,42,30.00,29.80,30,9,30,0.20
2012-3-23,75.9,62.8,48.7,50.1,47.7,44.5,91,61,35,30.08,29.97,13,4,13,0.00
2012-3-24,82.8,70.4,56.7,58.0,53.0,49.0,77,56,35,30.09,29.99,11,4,11,0.00
2012-3-25,85.8,74.3,60.4,57.7,55.2,52.7,83,54,34,30.13,30.01,11,5,11,0.00
2012-3-26,85.1,75.7,65.5,59.8,56.0,52.7,66,51,37,30.10,29.98,20,8,20,0.00
2012-3-27,81.3,73.6,64.9,59.5,57.8,55.1,79,59,43,30.09,29.99,27,10,27,0.00
2012-3-28,79.2,71.6,65.8,65.1,62.5,57.9,86,73,62,30.09,29.94,17,8,17,0.00
2012-3-29,80.8,71.0,64.2,66.2,64.3,61.9,95,80,57,29.99,29.83,17,8,17,0.00
2012-3-30,82.8,74.0,68.7,69.3,67.2,65.2,94,80,59,29.89,29.78,20,8,20,0.00
2012-3-31,86.7,76.0,68.0,69.1,67.0,65.9,94,75,52,29.88,29.79,14,8,14,0.00
2012-4-1,88.3,78.2,69.1,69.0,67.2,64.0,92,71,46,29.83,29.67,26,12,26,0.00
2012-4-2,84.6,75.1,69.4,69.3,66.5,62.1,87,75,55,29.76,29.60,30,14,30,0.00
2012-4-3,77.7,69.1,62.2,69.9,65.6,61.3,97,89,75,29.88,29.72,24,8,24,0.32
2012-4-4,75.2,65.3,57.0,61.7,56.7,50.7,99,76,47,29.95,29.79,16,7,16,0.01
2012-4-5,75.6,66.5,56.7,56.3,53.9,49.9,88,65,42,29.98,29.83,17,7,17,0.00
2012-4-6,64.6,61.5,58.3,54.6,53.9,53.1,86,76,68,30.02,29.97,11,6,11,0.00
2012-4-8,63.9,63.6,63.0,61.2,60.9,60.3,91,91,91,29.92,29.92,3,2,3,0.38
2012-4-9,73.8,70.8,62.6,65.5,64.4,60.0,93,80,74,30.11,29.92,8,4,8,0.00
2012-4-10,86.0,75.6,67.6,65.2,63.2,60.1,89,67,43,30.14,30.03,12,5,12,0.00
2012-4-11,77.0,71.7,0.0,64.7,62.7,60.6,73,71,65,30.08,30.02,21,9,21,0.00
2012-4-12,78.6,70.5,62.8,65.7,62.2,57.7,86,75,59,30.08,29.91,25,14,25,0.00
2012-4-13,81.0,73.8,66.6,67.8,65.1,61.6,89,75,59,30.00,29.84,28,14,28,0.00
2012-4-14,81.0,76.4,72.1,69.1,67.6,66.3,85,75,63,29.90,29.72,37,18,37,0.00
2012-4-15,76.3,69.4,61.2,70.5,59.7,46.2,93,73,43,29.94,29.65,36,10,36,0.11
2012-4-16,75.6,66.4,58.6,55.6,48.2,41.8,88,54,35,30.20,29.92,23,8,23,0.00
2012-4-17,79.2,68.7,55.9,58.2,51.3,41.9,82,56,31,30.28,30.17,13,6,13,0.00
2012-4-18,80.2,70.2,59.7,57.8,53.8,49.5,76,57,43,30.20,30.00,22,9,22,0.00
2012-4-19,81.9,72.8,61.9,58.3,52.8,48.5,65,50,36,30.01,29.75,27,12,27,0.00
2012-4-20,73.6,65.7,58.1,62.3,56.5,48.6,92,73,56,30.06,29.72,27,11,27,0.07
2012-4-21,76.1,62.9,48.9,49.4,45.9,41.6,90,57,32,30.09,29.99,17,6,17,0.00
2012-4-22,80.6,69.8,59.5,55.5,47.3,36.8,69,47,26,30.20,30.03,26,8,26,0.00
2012-4-23,77.0,66.3,51.6,45.9,41.0,36.8,73,41,25,30.29,30.07,14,5,14,0.00
2012-4-24,86.7,74.0,59.4,58.3,50.4,41.9,58,44,33,30.08,29.83,21,9,21,0.00
2012-4-25,89.2,78.7,66.9,68.5,64.4,58.1,85,63,48,29.89,29.73,27,14,27,0.00
2012-4-26,89.4,80.0,71.2,69.5,67.5,64.8,85,67,49,29.85,29.77,22,11,22,0.00
2012-4-27,88.7,79.1,69.8,68.7,64.5,59.8,85,63,39,29.85,29.71,31,16,31,0.00
2012-4-28,88.2,79.1,70.2,66.7,64.7,62.5,83,63,45,29.90,29.77,33,16,33,0.00
2012-4-29,86.5,78.1,69.6,69.4,64.8,60.4,89,65,43,30.01,29.88,30,13,30,0.00
2012-4-30,84.9,78.5,73.0,72.7,69.0,66.2,88,73,56,30.02,29.88,30,12,30,0.08
2012-5-1,87.3,79.2,71.1,68.8,66.8,63.5,88,67,50,29.95,29.81,33,16,33,0.00
2012-5-2,86.0,78.4,72.1,69.4,67.6,65.7,86,70,55,29.94,29.81,30,11,30,0.00
2012-5-3,91.2,82.3,72.0,70.5,68.4,66.1,87,64,45,29.96,29.85,24,11,24,0.00
2012-5-4,81.1,79.8,78.8,68.6,68.3,67.9,70,68,65,29.96,29.92,21,13,21,0.00
2012-5-7,75.9,74.1,73.2,68.3,66.9,66.0,80,78,77,29.97,29.88,24,11,24,0.00
2012-5-8,74.5,69.8,67.3,68.4,63.7,58.1,94,81,67,30.04,29.94,22,8,22,0.07
2012-5-11,75.4,70.2,65.5,67.4,65.5,63.4,97,85,73,30.12,30.01,15,7,15,0.27
2012-5-12,66.0,65.8,65.3,65.2,64.7,64.2,97,96,96,30.15,30.08,4,2,4,0.00
2012-5-13,83.5,72.5,63.1,62.6,60.2,55.7,94,68,41,30.34,30.21,15,7,15,0.00
2012-5-14,82.6,73.9,62.2,63.0,58.4,55.0,87,60,39,30.26,30.14,14,6,14,0.00
2012-5-15,84.4,76.5,64.8,59.2,54.4,48.9,78,49,32,30.23,30.14,15,6,15,0.00
2012-5-16,89.8,83.3,64.0,62.2,54.7,50.1,84,40,27,30.22,29.97,17,5,17,0.00
2012-5-17,90.5,80.9,69.1,62.6,57.8,52.7,73,47,28,30.05,29.90,21,7,21,0.00
2012-5-18,89.1,80.9,69.8,64.7,59.4,55.2,73,49,34,29.97,29.83,29,12,29,0.00
2012-5-19,88.5,79.5,69.4,67.6,62.6,56.8,88,58,38,29.98,29.88,30,14,30,0.00
2012-5-20,89.1,80.9,72.5,65.8,61.7,55.6,74,54,34,30.17,29.96,24,7,24,0.00
2012-5-21,89.1,79.8,68.7,64.8,61.1,57.5,75,54,37,30.19,30.04,18,6,18,0.00
2012-5-22,93.6,82.2,70.2,63.9,59.3,54.0,59,46,36,30.08,29.82,17,7,17,0.00
2012-5-23,91.0,83.5,74.8,86.9,64.2,57.8,90,53,40,29.83,29.59,35,14,35,0.00
2012-5-24,93.2,83.6,75.4,70.9,69.5,66.8,79,64,46,29.73,29.59,33,17,33,0.00
2012-5-25,93.6,84.4,75.0,71.3,70.0,68.6,86,64,46,29.95,29.73,30,16,30,0.00
2012-5-26,91.8,83.9,76.5,72.0,68.7,64.0,84,62,42,30.04,29.92,30,14,30,0.00
2012-5-27,92.5,83.2,73.2,70.2,64.9,57.7,88,56,33,30.01,29.85,27,13,30,0.00
2012-5-28,94.3,84.0,70.2,70.8,68.1,61.6,92,60,45,30.04,29.79,34,10,34,0.18
2012-5-29,95.9,82.4,68.5,72.9,69.3,65.8,95,67,43,30.00,29.79,29,8,29,0.05
2012-5-30,92.7,79.2,68.2,71.2,64.9,59.1,92,64,36,30.03,29.70,35,12,35,0.99
2012-5-31,84.9,75.1,68.0,69.8,63.4,49.4,95,69,43,30.00,29.68,36,10,36,0.17
2012-6-1,86.7,76.2,64.2,58.0,53.2,48.6,65,46,32,30.05,26.84,16,7,16,0.00
2012-6-2,96.4,84.1,72.3,70.8,63.9,54.4,72,52,36,29.95,29.82,21,9,21,0.00
2012-6-3,95.5,89.9,82.0,73.4,68.2,65.0,63,49,38,29.89,29.81,23,11,23,0.00
2012-6-4,94.6,84.5,76.1,74.8,72.2,68.6,86,67,49,29.95,29.79,27,8,27,0.00
2012-6-5,84.4,82.7,81.3,71.5,70.8,70.1,70,67,65,30.60,29.83,4,2,4,0.00
2012-6-6,92.7,74.1,69.1,72.9,69.6,68.0,99,88,49,29.93,29.76,27,12,27,1.57
2012-6-7,77.2,71.9,68.7,69.4,67.7,64.7,99,87,72,30.03,28.47,19,7,19,0.40
2012-6-8,88.3,78.8,71.2,65.8,63.0,60.0,81,60,42,30.03,29.88,12,6,14,0.00
2012-6-9,90.9,82.9,73.6,70.0,67.3,64.3,78,60,43,29.91,29.73,21,8,21,0.00
2012-6-10,92.8,85.1,76.5,73.5,70.9,68.0,85,64,50,29.81,29.74,27,12,27,0.00
2012-6-11,97.2,88.1,78.4,75.6,74.1,69.7,89,65,46,29.97,29.77,26,12,26,0.00
2012-6-12,90.9,82.1,75.7,71.1,67.1,62.3,74,61,45,30.12,29.95,30,9,36,0.00
2012-6-13,88.2,76.6,72.5,74.2,68.4,66.5,84,76,53,30.11,29.89,19,7,19,0.02
2012-6-14,94.1,85.8,77.2,74.6,72.5,68.9,88,66,44,29.97,29.85,27,13,27,0.00
2012-6-15,92.5,83.7,71.1,75.4,72.4,68.3,95,70,50,30.01,29.90,24,10,24,0.22
2012-6-16,93.4,84.2,76.5,74.3,71.3,68.4,85,67,46,30.07,29.96,23,11,23,0.01
2012-6-17,90.9,82.7,74.8,73.7,70.8,68.7,86,68,51,30.05,29.84,18,8,18,0.00
2012-6-18,91.2,84.2,77.2,72.4,68.9,66.1,75,61,46,30.05,29.78,27,12,27,0.00
2012-6-19,91.4,81.3,76.1,73.4,71.7,68.1,88,74,50,29.95,29.85,36,16,36,0.00
2012-6-20,92.1,83.2,76.5,73.9,70.8,65.7,89,68,44,30.00,29.91,26,14,26,0.00
2012-6-21,92.3,83.5,0.0,72.7,68.8,65.3,85,61,44,30.02,29.92,14,6,14,0.00
2012-6-22,97.0,88.0,77.9,73.7,69.7,65.2,83,57,40,29.99,29.85,14,5,14,0.00
2012-6-23,96.8,89.7,81.0,73.1,68.2,62.8,74,51,34,29.94,29.86,16,7,16,0.00
2012-6-24,100.4,90.5,79.3,71.2,66.7,62.6,72,47,31,29.99,29.88,11,4,11,0.00
2012-6-25,104.2,93.8,81.9,70.2,66.6,62.1,61,42,28,29.95,29.80,115,3,115,0.00
2012-6-26,106.5,95.3,83.8,74.2,69.9,64.8,71,45,28,29.85,29.74,16,5,16,0.00
2012-6-27,100.8,92.5,84.2,74.2,67.7,57.8,66,46,26,29.94,29.81,18,9,18,0.00
2012-6-28,100.0,91.8,82.2,69.2,65.2,60.5,64,43,28,30.05,27.69,22,10,22,0.00
2012-6-29,97.9,90.0,80.8,73.8,68.7,64.0,75,51,35,30.02,29.86,19,9,19,0.00
2012-6-30,96.1,88.1,80.1,74.5,71.3,64.7,76,59,37,29.93,29.82,21,8,21,0.00
2012-7-1,94.8,83.7,77.4,75.0,71.6,66.5,88,68,44,30.01,29.92,34,10,34,0.00
2012-7-2,92.7,84.7,78.6,75.9,71.4,65.7,87,66,47,30.09,29.96,20,10,20,0.00
2012-7-3,97.0,88.0,79.0,71.8,66.9,61.5,74,52,32,30.06,29.90,22,10,22,0.00
2012-7-4,90.0,82.6,77.9,74.6,72.1,67.1,81,71,53,30.03,29.96,21,10,21,0.00
2012-7-7,88.2,79.6,77.5,72.9,71.1,69.4,83,75,58,29.94,29.88,39,10,39,0.02
2012-7-8,97.0,84.7,75.7,74.7,72.0,67.1,89,68,38,29.95,29.81,30,5,30,0.00
2012-7-9,95.4,84.6,78.6,76.9,73.6,67.8,89,71,42,29.91,29.76,24,6,24,0.00
2012-7-10,94.1,81.5,75.0,76.9,72.8,68.9,93,77,45,30.63,29.77,27,6,27,0.20
2012-7-11,95.4,84.8,73.9,75.7,70.8,64.8,92,66,38,29.90,29.79,21,7,21,0.01
2012-7-12,95.0,84.5,75.7,74.1,72.5,68.7,88,69,43,29.98,29.83,120,6,120,0.00
2012-7-13,94.5,85.9,76.5,76.8,72.0,66.5,94,65,44,30.02,29.92,19,7,19,0.00
2012-7-14,95.9,85.0,77.7,76.1,71.3,66.2,87,66,41,30.05,29.93,38,7,38,0.05
2012-7-15,91.9,79.6,72.9,75.4,71.7,68.6,90,77,54,30.05,29.93,16,6,16,0.01
2012-7-16,94.3,83.6,73.0,73.8,71.1,68.4,93,68,45,30.73,29.89,24,9,24,0.00
2012-7-17,96.6,91.7,82.9,74.3,70.3,68.0,73,50,42,30.00,29.86,12,6,18,0.00
2012-7-18,98.8,93.7,85.8,70.8,69.4,68.2,61,46,38,30.00,29.88,11,5,12,0.00
2012-7-19,93.9,92.0,89.1,70.4,68.6,68.0,54,47,44,30.02,29.96,8,3,11,0.00
2012-7-20,90.3,84.5,83.5,71.5,70.7,68.8,66,64,50,30.01,29.93,8,2,10,0.00
2012-7-21,108.3,92.7,80.6,73.4,69.9,60.7,74,51,23,29.98,29.80,17,4,26,0.00
2012-7-22,101.3,90.9,81.7,75.2,71.1,66.3,80,55,34,30.01,29.90,18,7,24,0.00
2012-7-23,97.7,89.0,80.4,74.4,69.8,65.8,77,55,37,30.09,29.97,16,6,22,0.00
2012-7-24,97.5,88.4,78.6,75.4,71.5,67.7,85,59,39,30.09,29.88,14,6,18,0.00
2012-7-25,100.2,90.3,80.6,74.9,71.5,66.6,81,56,35,29.96,29.78,17,8,24,0.00
2012-7-26,101.3,89.5,80.6,75.2,72.6,69.9,79,59,39,29.93,29.79,14,6,21,0.00
2012-7-27,99.5,89.9,81.0,75.5,71.5,61.6,77,57,35,30.04,29.92,10,5,16,0.00
2012-7-28,103.6,93.4,81.3,73.8,69.9,63.5,75,49,30,30.10,29.95,11,4,14,0.00
2012-7-29,105.8,94.5,81.3,69.4,62.0,42.7,59,37,13,30.07,29.89,11,4,17,0.00
2012-7-30,104.4,94.7,82.8,70.7,66.6,60.7,64,42,25,30.02,29.86,11,5,15,11.40
2012-7-31,106.0,94.2,81.7,72.0,68.3,51.4,72,45,17,29.98,29.83,13,5,17,0.00
2012-8-1,106.5,95.0,83.8,73.4,69.0,60.3,69,45,23,29.95,29.77,11,6,17,0.00
2012-8-2,106.0,94.0,82.8,70.5,66.5,59.7,65,43,23,29.87,29.73,13,6,21,0.00
2012-8-3,102.6,92.4,81.3,72.2,69.5,65.1,70,49,33,29.87,29.75,15,7,21,0.00
2012-8-4,104.5,91.9,81.1,73.4,69.9,62.7,75,51,33,29.98,29.74,15,7,21,0.00
2012-8-5,103.1,93.1,83.3,74.3,71.1,68.3,72,51,34,30.12,29.97,10,4,15,0.00
2012-8-6,103.3,93.4,83.7,73.0,70.8,67.0,68,49,35,30.10,29.89,13,4,16,0.00
2012-8-7,104.9,93.9,84.0,71.4,69.3,64.0,63,46,33,29.97,29.83,13,4,18,0.00
2012-8-8,93.9,88.9,79.2,74.9,71.0,67.8,76,56,45,30.05,29.86,21,4,24,0.00
2012-8-9,107.6,92.0,76.1,75.7,67.7,41.8,90,52,11,30.00,29.74,14,5,19,11.40
2012-8-10,97.2,90.0,81.3,72.0,63.3,49.3,65,43,22,29.94,29.81,14,6,18,0.00
2012-8-11,97.7,87.6,77.2,62.9,56.0,47.8,46,35,19,30.00,29.86,11,5,16,0.00
2012-8-12,103.5,90.0,78.6,70.8,68.2,62.8,69,50,35,29.96,29.78,14,6,22,0.00
2012-8-13,103.5,93.0,82.6,71.9,60.4,43.9,68,39,14,29.99,29.86,13,5,17,0.00
2012-8-14,104.4,89.3,74.8,76.7,64.4,54.7,99,47,22,29.97,29.73,21,7,30,0.72
2012-8-15,102.9,82.0,71.1,76.8,72.8,69.3,99,76,35,29.99,29.79,18,6,27,13.52
2012-8-16,91.0,85.5,80.2,74.2,68.8,62.2,75,59,40,30.03,29.89,13,5,21,0.00
2012-8-17,98.8,86.5,75.2,75.9,72.5,66.7,94,66,41,30.01,29.83,22,4,31,0.59
2012-8-18,86.7,77.1,68.9,74.2,69.5,65.1,99,79,58,29.99,29.80,24,7,30,0.38
2012-8-19,91.6,79.1,68.2,71.7,65.2,54.4,99,68,31,30.00,29.85,14,4,20,0.00
2012-8-20,92.3,80.9,68.7,69.1,61.1,54.7,90,55,32,30.02,29.89,10,4,14,0.00
2012-8-21,80.8,75.5,70.2,70.3,66.6,58.5,93,75,47,30.11,29.96,9,2,11,0.08
2012-8-22,90.5,79.6,67.5,69.1,63.0,55.4,97,62,32,30.13,29.97,11,4,18,0.00
2012-8-23,91.6,83.5,73.8,71.6,65.3,58.0,84,56,36,30.07,29.91,14,6,19,0.00
2012-8-24,92.7,84.0,75.4,74.8,70.9,65.2,93,67,43,29.98,29.79,16,6,24,0.00
2012-8-25,93.6,85.3,78.4,75.4,72.8,67.3,90,68,46,29.91,29.79,21,8,27,0.00
2012-8-26,87.1,81.3,76.3,78.5,75.3,72.8,95,82,67,30.05,29.90,14,4,19,0.50
2012-8-27,96.1,85.8,77.0,76.6,72.9,65.8,93,68,38,30.07,29.90,14,3,19,0.00
2012-8-28,94.6,85.8,77.7,76.0,72.2,59.9,86,65,43,30.00,29.84,14,4,17,0.00
2012-8-29,96.1,86.0,71.4,67.0,61.2,56.3,68,44,33,29.93,29.75,14,6,20,0.00
2012-8-30,96.8,88.0,79.7,68.9,64.8,57.3,60,47,35,29.82,29.67,15,7,21,0.00
2012-8-31,99.7,89.0,78.8,72.3,69.1,65.8,75,54,34,29.93,29.77,11,3,15,0.00
2012-9-1,99.5,90.1,80.1,76.0,71.8,67.3,84,57,36,30.04,29.90,13,6,21,0.00
2012-9-2,100.0,90.2,79.2,74.7,70.9,66.4,83,56,35,30.02,29.85,16,6,18,0.00
2012-9-3,100.4,91.2,80.8,73.3,69.2,64.1,71,50,34,29.98,29.83,11,5,17,0.00
2012-9-4,101.5,91.2,80.4,75.8,69.9,64.1,78,52,34,29.95,29.78,11,5,17,0.00
2012-9-5,103.3,91.9,81.0,72.5,68.2,60.6,71,48,33,29.89,29.75,11,5,14,0.00
2012-9-6,102.6,92.0,80.4,71.7,66.5,60.5,71,45,27,29.93,29.78,12,3,15,0.00
2012-9-7,104.4,93.1,81.1,71.2,67.0,62.9,65,44,28,29.90,29.72,26,5,33,0.00
2012-9-12,92.3,88.2,84.0,68.1,63.9,60.5,59,45,36,30.01,29.93,8,5,11,0.01
2012-9-13,86.4,79.6,73.4,76.2,70.5,63.4,94,75,47,30.18,30.00,16,7,23,0.16
2012-9-14,73.2,68.0,65.5,68.8,65.1,63.6,97,91,83,30.25,30.16,12,6,16,0.02
2012-9-15,77.9,67.9,63.7,64.3,62.4,60.9,94,83,63,30.24,30.11,9,3,13,0.00
2012-9-16,69.3,69.1,69.1,63.3,63.3,63.3,82,82,82,30.14,30.13,3,2,4,0.00
2012-9-18,81.0,74.4,69.3,46.0,40.9,34.8,43,31,19,30.11,30.02,8,4,11,0.00
2012-9-19,87.4,75.2,63.5,62.6,50.1,44.5,84,44,24,30.16,30.01,13,5,17,0.00
2012-9-20,94.1,80.7,66.7,63.1,57.6,52.5,64,47,30,30.08,29.91,11,5,18,15.44
2012-9-21,95.2,83.3,70.7,61.8,56.8,49.8,65,43,23,30.01,29.88,12,4,14,0.00
2012-9-22,97.2,83.9,70.7,60.7,56.4,49.2,65,42,22,30.10,29.96,8,3,12,0.00
2012-9-23,94.5,84.0,72.0,65.3,61.1,56.1,71,48,30,30.19,30.05,8,3,14,0.00
2012-9-24,96.1,85.3,74.8,71.7,63.5,52.6,81,51,24,30.13,29.93,15,6,21,0.00
2012-9-25,94.1,84.2,73.6,71.8,64.8,57.0,90,55,32,30.01,29.84,20,9,29,0.00
2012-9-26,93.2,83.9,75.6,73.2,67.2,60.9,88,60,39,30.04,29.90,18,7,29,0.00
2012-9-27,90.9,82.4,75.9,73.0,68.8,62.8,86,65,41,30.11,29.98,14,5,21,0.00
2012-9-28,89.2,78.7,73.2,71.7,69.2,65.0,87,74,47,30.08,29.95,12,4,16,0.02
2012-9-29,75.4,70.5,66.6,71.2,68.9,66.3,99,95,79,30.01,29.84,17,6,25,0.99
2012-9-30,72.7,67.7,63.1,66.8,61.6,53.7,99,83,54,29.92,29.85,16,6,24,0.16
2012-10-1,82.6,70.9,57.9,64.6,56.2,48.1,99,66,31,29.89,29.79,18,6,25,0.00
2012-10-2,79.7,71.6,64.8,59.1,56.7,54.2,80,61,43,30.00,29.88,12,4,15,0.00
2012-10-3,83.5,74.3,64.9,60.7,55.1,47.1,84,54,31,30.03,29.93,14,5,19,0.00
2012-10-4,85.8,77.0,67.5,70.5,64.7,49.3,84,66,54,30.13,29.80,14,7,21,0.00
2012-10-5,82.4,73.4,58.1,71.9,64.4,50.8,88,74,61,30.15,30.00,17,7,24,0.00
2012-10-6,57.9,52.7,47.3,50.8,46.3,41.0,91,79,70,30.31,30.14,17,8,22,0.00
2012-10-7,53.1,50.2,47.5,42.2,38.0,33.8,81,63,50,30.37,30.24,14,5,20,0.00
2012-10-8,66.6,55.5,42.4,47.1,40.9,36.0,86,60,37,30.31,30.08,10,3,14,0.00
2012-10-9,80.1,66.4,54.9,67.1,58.3,44.8,87,76,62,30.20,29.85,18,7,29,0.00
2012-10-10,71.4,67.2,64.0,66.5,64.4,62.5,99,91,80,30.18,29.97,12,5,17,0.00
2012-10-11,84.0,74.4,66.2,74.4,70.2,62.8,98,87,70,30.17,30.03,18,6,24,0.00
2012-10-12,84.9,77.6,71.2,72.3,70.4,68.1,98,80,59,30.19,30.06,13,6,20,0.00
2012-10-13,82.0,76.9,72.1,73.7,71.3,68.4,91,83,71,30.08,29.82,18,9,27,0.00
2012-10-14,81.1,72.2,63.0,73.2,57.7,49.0,99,64,35,30.16,29.84,19,5,30,17.32
2012-10-15,83.5,71.2,57.7,59.9,52.1,40.7,93,56,23,30.14,29.96,8,2,11,0.00
2012-10-16,75.9,69.0,64.2,66.8,57.0,49.8,95,66,49,30.00,29.69,19,7,32,0.00
2012-10-17,86.9,75.5,68.4,69.7,60.0,46.1,93,64,32,29.82,29.54,22,10,32,0.00
2012-10-18,75.6,67.1,54.9,46.8,31.8,20.6,58,29,14,30.03,29.81,17,5,25,0.00
2012-10-19,86.7,65.6,52.9,55.8,29.6,-99.9,62,33,14,30.07,29.56,16,4,25,17.32
2012-10-20,86.5,73.7,60.8,71.8,55.9,35.8,84,55,33,29.93,29.71,18,7,23,0.00
2012-10-21,88.9,81.3,76.3,73.4,71.6,68.6,89,74,53,29.88,29.77,20,10,28,0.00
2012-10-22,84.9,76.9,72.0,73.2,70.4,64.4,92,81,59,30.00,29.87,19,8,28,0.00
2012-10-23,78.8,74.1,71.2,70.9,68.4,66.9,92,83,70,29.94,29.89,15,8,24,0.00
2012-10-24,84.4,76.1,69.6,69.8,66.8,63.5,94,74,50,30.00,29.82,16,8,23,0.00
2012-10-25,81.3,69.4,54.7,70.5,61.5,42.1,91,76,61,30.13,29.81,19,9,28,0.01
2012-10-26,54.9,51.1,46.6,43.3,38.9,33.2,76,63,48,30.37,30.12,20,10,27,0.00
2012-10-27,59.2,48.4,37.8,36.2,30.8,20.7,81,54,24,30.40,30.19,11,5,17,0.00
2012-10-28,63.9,51.5,37.4,36.9,29.6,22.4,85,47,21,30.36,30.20,11,3,15,0.00
2012-10-29,68.5,56.8,44.6,37.1,29.6,22.9,61,38,18,30.35,30.15,8,2,10,0.00
2012-10-30,77.4,63.5,50.5,46.5,40.3,33.5,64,44,27,30.16,29.94,10,4,13,0.00
2012-10-31,83.7,68.2,54.3,52.8,49.2,45.7,84,54,28,30.04,29.96,9,2,12,0.00
2012-11-1,87.8,72.8,58.1,56.8,52.2,44.2,76,51,22,30.06,29.90,9,3,14,0.00
2012-11-2,87.4,74.7,61.7,62.4,55.1,47.1,74,53,26,30.01,29.88,16,5,21,0.00
2012-11-3,83.3,73.4,65.1,67.5,60.6,43.4,96,66,44,30.13,29.95,12,5,17,0.00
2012-11-4,74.5,64.3,54.5,53.5,45.9,41.7,78,52,38,30.18,30.05,9,2,12,17.33
2012-11-5,75.0,63.6,54.5,60.3,45.6,28.3,99,60,21,30.15,30.01,17,5,23,0.00
2012-11-6,73.2,60.2,45.7,51.0,42.4,37.9,82,54,32,30.20,30.05,6,2,8,0.00
2012-11-7,75.9,64.1,50.9,47.6,40.2,30.3,84,46,21,30.23,30.08,11,3,15,0.00
2012-11-8,80.6,69.0,58.3,60.8,52.7,38.4,74,57,42,30.17,29.96,21,9,28,0.00
2012-11-9,82.4,73.0,64.2,65.3,60.4,54.1,93,67,44,30.05,29.90,25,10,34,0.00
2012-11-10,79.7,72.5,65.8,64.5,61.9,58.8,91,71,52,30.01,29.83,23,11,36,0.00
2012-11-11,75.0,63.6,43.3,66.7,57.7,35.4,95,81,59,30.34,29.77,24,9,36,0.02
2012-11-12,57.9,46.3,35.6,35.7,25.1,15.7,77,48,22,30.55,30.34,11,4,17,0.00
2012-11-13,58.3,50.0,40.1,31.4,25.6,18.8,63,41,24,30.56,30.38,11,4,15,0.00
2012-11-14,62.8,54.1,43.9,34.9,30.7,25.2,69,43,25,30.48,30.31,9,3,13,0.00
2012-11-15,64.0,53.4,45.3,37.9,32.7,27.5,67,47,27,30.39,30.25,10,5,14,0.00
2012-11-16,65.1,53.8,42.3,38.2,34.9,27.4,83,52,26,30.46,30.34,10,3,12,0.00
2012-11-17,65.1,54.8,42.6,36.8,32.4,26.6,73,45,25,30.46,30.31,9,4,11,0.00
2012-11-18,68.2,58.4,49.3,42.8,37.8,-99.9,66,48,33,30.34,30.20,13,6,62,17.35
2012-11-19,71.8,64.3,57.9,56.8,49.8,35.7,77,60,39,30.26,30.12,18,6,25,0.00
2012-11-20,79.5,67.9,54.9,61.1,56.0,53.3,95,68,42,30.23,30.11,7,2,10,0.00
2012-11-21,79.0,67.9,54.1,61.1,52.2,42.0,94,61,27,30.29,30.13,9,4,14,0.00
2012-11-22,75.9,67.6,58.8,57.7,52.3,45.2,73,59,35,30.15,30.01,18,7,26,0.00
2012-11-23,66.2,60.1,47.3,56.0,34.5,20.2,83,43,20,30.48,30.11,22,8,33,0.00
2012-11-24,60.4,50.2,36.5,29.8,23.1,19.0,67,37,22,30.49,30.13,10,4,14,0.00
2012-11-25,75.0,61.3,47.3,58.1,38.8,23.7,76,44,32,30.14,29.84,16,8,24,0.00
2012-11-26,73.8,62.3,47.7,62.5,52.2,36.5,98,72,31,30.31,29.88,21,9,27,0.00
2012-11-27,53.8,46.5,41.9,40.6,36.1,29.6,82,67,55,30.50,30.31,17,5,21,0.00
2012-11-28,65.5,53.0,39.7,43.9,40.1,37.2,96,64,37,30.47,30.28,13,4,66,17.35
2012-11-29,67.6,57.7,46.8,53.0,43.1,37.0,86,60,34,30.30,30.11,13,7,21,0.00
2012-11-30,73.2,64.9,57.0,64.0,59.6,52.3,98,84,66,30.16,30.02,17,8,26,0.00
2012-12-1,81.5,72.6,65.1,67.2,64.4,61.8,98,77,53,30.07,29.92,22,9,29,0.00
2012-12-2,81.5,74.0,69.3,68.8,64.1,60.0,91,73,50,30.13,29.98,18,8,26,0.00
2012-12-3,79.2,72.0,65.1,63.6,61.9,59.9,94,72,53,30.03,29.89,19,9,27,0.00
2012-12-4,72.1,64.1,55.4,63.0,42.0,21.8,90,50,19,30.30,30.00,17,7,25,0.00
2012-12-5,66.7,55.3,41.9,52.6,43.6,27.2,85,66,34,30.33,30.07,8,4,11,0.00
2012-12-6,68.9,59.6,52.2,56.3,52.6,49.4,98,80,53,30.08,29.81,17,8,21,17.35
2012-12-7,72.0,61.6,52.0,57.5,51.2,44.3,98,71,43,29.92,29.79,14,5,17,0.00
2012-12-8,68.9,60.1,50.7,64.5,54.1,48.8,97,82,60,29.96,29.78,11,3,14,0.00
2012-12-9,68.2,59.4,40.1,66.8,53.0,15.3,99,81,36,30.10,29.77,22,9,30,0.00
2012-12-10,42.3,36.3,29.7,27.3,18.7,9.4,90,50,33,30.25,30.10,21,9,31,0.00
2012-12-11,50.0,39.9,30.9,22.4,14.9,7.2,68,39,21,30.30,30.17,11,3,14,0.00
2012-12-12,56.5,46.4,35.1,24.7,20.2,12.9,56,37,22,30.37,30.22,14,7,21,0.00
2012-12-13,63.9,52.5,40.3,27.0,23.4,19.8,49,33,22,30.35,30.18,16,8,20,0.00
2012-12-14,61.2,56.6,52.5,60.4,43.7,20.2,99,66,26,30.22,29.86,23,10,29,0.31
2012-12-15,73.4,63.3,55.8,60.0,42.1,25.5,99,53,17,29.94,29.82,16,4,21,0.03
2012-12-16,73.4,63.2,58.1,47.3,39.5,30.3,67,44,21,29.86,29.69,11,3,17,0.00
2012-12-17,61.0,53.3,43.2,41.6,38.9,33.2,91,59,42,29.97,29.78,11,4,19,0.00
2012-12-18,78.4,62.2,47.5,50.0,35.5,27.0,62,41,17,29.87,29.74,13,5,17,0.00
2012-12-19,77.9,69.9,55.0,65.7,58.1,20.0,96,70,18,29.85,29.54,32,11,47,2.69
2012-12-20,55.0,45.0,38.7,27.4,17.2,6.6,59,35,21,30.48,29.85,29,13,42,0.71
2012-12-21,65.3,49.8,33.8,21.8,15.9,5.1,46,27,17,30.50,30.31,10,4,13,0.00
2012-12-22,67.1,55.2,41.9,48.9,31.0,12.9,66,41,23,30.34,30.04,16,7,25,0.01
2012-12-23,65.5,58.2,45.5,56.5,41.9,21.9,93,59,21,30.04,29.84,14,6,24,0.00
2012-12-24,52.5,43.7,34.3,32.7,29.6,25.4,75,58,42,30.10,29.83,10,4,14,0.00
2012-12-25,47.5,37.6,28.6,46.9,35.1,22.9,99,92,54,30.22,29.66,25,11,36,1.02
2012-12-26,33.1,27.2,21.0,23.3,19.0,13.9,81,71,58,30.36,30.19,22,7,30,0.00
2012-12-27,44.8,35.9,26.8,41.3,31.3,21.5,99,84,68,30.20,29.93,13,5,17,0.00
2012-12-28,41.2,37.2,30.7,40.9,34.1,22.0,99,89,70,30.30,29.93,16,7,23,0.01
2012-12-29,46.6,36.6,25.3,27.4,23.2,19.7,86,60,41,30.50,30.29,10,3,14,0.00
2012-12-30,47.3,41.1,33.8,29.1,23.9,17.4,69,51,31,30.50,30.27,16,7,21,0.00
2012-12-31,49.6,44.5,38.7,49.4,42.2,27.1,99,93,52,30.27,29.99,21,5,27,0.19
2013-1-1,45.1,40.2,36.0,44.3,37.6,29.1,99,91,75,30.36,30.07,16,7,21,0.00